Location: Cogollal
(10.0582°N, 67.8466°W)
Time: 02:07:03
(UTC+00:00)

Cosmos 1633 Rocket - Pass Details

Date: 14 April 2024
Orbit: 604 x 619 km, 82.5° (Epoch: 19 May)

Event Time Altitude Azimuth Distance (km) Brightness Sun altitude
Rises 08:46:32 0° 354° (N) 2,854 6.6 -23.6°
Reaches altitude 10° 08:48:44 10° 353° (N) 1,953 5.7 -23.1°
Maximum altitude 08:53:03 78° 267° (W) 625 2.8 -22.0°
Drops below altitude 10° 08:57:24 10° 180° (S) 1,964 5.5 -21.0°
Sets 08:59:37 0° 179° (S) 2,871 6.4 -20.5°
